Regional Weather Roundup
Issued by NWS

Home | Current Version | Previous Version | Graphics & Text | Print | Product List | Glossary On
Versions: 1 2 3 4 5 6 7 8 9 10 11 12 13 14 15 16 17 18 19 20 21 22 23 24 25 26 27 28 29 30 31 32 33 34 35 36 37 38 39 40 41 42 43 44 45 46 47 48 49 50
000
ASUS43 KLOT 051312
RWRIL

ILLINOIS REGIONAL WEATHER ROUNDUP
NATIONAL WEATHER SERVICE CHICAGO/ROMEOVILLE IL
800 AM CDT SAT SEP 05 2015

NOTE: "FAIR" INDICATES FEW OR NO CLOUDS BELOW 12,000 FEET WITH NO
SIGNIFICANT WEATHER AND/OR OBSTRUCTIONS TO VISIBILITY.

* THESE STATIONS ARE NOT UNDER NWS QUALITY CONTROL. THEY ALSO MAY NOT
  REPORT WEATHER SUCH AS PRECIPITATION OR FOG.

ILZ001-002-007-009-015-016-024-051400-
NORTHWEST ILLINOIS

CITY           SKY/WX    TMP DP  RH WIND       PRES   REMARKS
MOLINE         PTSUNNY   76  69  79 S5        30.06R
STERLING*      CLOUDY    73  70  88 CALM      30.06S
SAVANNA*       CLOUDY    73  70  92 CALM      30.07R FOG
$$

ILZ003-004-008-010-011-017-018-051400-
NORTH CENTRAL ILLINOIS

CITY           SKY/WX    TMP DP  RH WIND       PRES   REMARKS
ROCKFORD       CLOUDY    72  67  84 SE3       30.10R
FREEPORT*      LGT RAIN  69  68  96 CALM      30.10S
ROCHELLE*      PTSUNNY   74  70  89 S3        30.10R
DE KALB*       MOSUNNY   69  67  95 S3        30.11R FOG
PERU*          CLOUDY    72  68  87 CALM      30.10R
$$

ILZ005-006-012>014-019>023-051400-
NORTHEAST ILLINOIS

CITY           SKY/WX    TMP DP  RH WIND       PRES   REMARKS
CHICAGO-OHARE  PTSUNNY   73  67  81 SW6       30.09R
CHICAGO-MIDWAY PTSUNNY   74  65  73 SW8       30.09R
AURORA         PTSUNNY   72  68  87 SE5       30.10R
LANSING*       PTSUNNY   70  65  85 SW9       30.11R
JOLIET*        FAIR      72  68  88 S5        30.12R
WAUKEGAN       CLOUDY    69  69 100 CALM      30.09S FOG
DUPAGE AIRPORT MOSUNNY   72  67  84 S5        30.10R
KANKAKEE*      CLOUDY    69  69  99 SE8       30.13R
WHEELING       NOT AVBL
MORRIS*        PTSUNNY   71  67  85 S6        30.11R
ROMEOVILLE*    MOSUNNY   72  67  84 S9        30.11R
NORTHERLY ISL    N/A     73  64  73 S3          N/A
$$

LMZ740>746-051400-
SOUTHERN LAKE MICHIGAN

STATION/POSITION SKY/WX   TEMP    WIND        PRES    VSBY  WAVE
                          AIR SEA DIR/SP/G                  HT/PER
                          (F)     (DEG/KT/KT) (MB)    (MI)  (FT/S)
SOUTHERN BUOY              69 71  140/  6/ 10 1018.6R         0
WILMETTE HARBOR            72 71   30/  4/  4   N/A           1
HARRISON CRIB              75     210/ 16/ 19   N/A
BURNHAM HARBOR             73      CALM  / 10   N/A
CALUMET HARBOR             72     190/  6/  8   N/A
BURNS HARBOR               70     190/ 11/ 15 1019.6R
MICHIGAN CITY              71     150/ 11/ 14   N/A
MICHIGAN CITY 6N           73 73  220/ 10/ 12   N/A           1
ST. JOSEPH                 73 73  250/ 12/ 14   N/A           1/ 2
$$

ILZ025>027-034>036-040-047-049-050-058-095>099-051400-
WEST-CENTRAL ILLINOIS

CITY           SKY/WX    TMP DP  RH WIND       PRES   REMARKS
QUINCY         SUNNY     75  69  81 S6        30.09R
GALESBURG*     PTSUNNY   71  68  90 CALM      30.09S
MACOMB*        MOSUNNY   74  70  88 SE5       30.11R
JACKSONVILLE*  SUNNY     77  71  82 S5        30.10S
PITTSFIELD*    SUNNY     74  70  86 CALM      30.11R
$$

ILZ028>032-037-038-041>044-048-051>054-059>061-051400-
CENTRAL ILLINOIS

CITY           SKY/WX    TMP DP  RH WIND       PRES   REMARKS
PONTIAC        PTSUNNY   73  68  83 S3        30.12R
BLOOMINGTON    MOSUNNY   73  68  84 S8        30.14R
DECATUR        SUNNY     74  66  76 S5        30.12R
PEORIA         PTSUNNY   75  67  76 SE6       30.10R
LACON*         CLOUDY    73  68  84 S5        30.08S
LINCOLN*       MOSUNNY   72  65  79 CALM      30.11R
SPRINGFIELD    MOSUNNY   74  68  81 SE3       30.11R
TAYLORVILLE    SUNNY     72  66  83 SE3       30.12R
$$

ILZ033-039-045-046-055>057-062-063-051400-
EAST-CENTRAL ILLINOIS

CITY           SKY/WX    TMP DP  RH WIND       PRES   REMARKS
CHAMPAIGN      SUNNY     72  69  90 S5        30.13R
RANTOUL*       MOSUNNY   71  68  92 CALM      30.14R
MATTOON        SUNNY     74  67  78 S8        30.12R
PARIS*         SUNNY     68  68  98 CALM      30.13R FOG
$$

ILZ079-100>102-051400-
SOUTHWEST ILLINOIS

CITY           SKY/WX    TMP DP  RH WIND       PRES   REMARKS
ALTON          SUNNY     72  70  94 CALM      30.11R FOG
BELLEVILLE     SUNNY     72  72 100 CALM      30.09R
CAHOKIA*       SUNNY     74  70  87 S3        30.10R
SPARTA*        SUNNY     72  70  93 CALM      30.12R
$$

ILZ064>066-069>071-074>076-080>082-084>086-088>090-092>094-051400-
SOUTH-CENTRAL ILLINOIS

CITY           SKY/WX    TMP DP  RH WIND       PRES   REMARKS
CARBONDALE     SUNNY     73  70  90 NE3       30.10R FOG
CAIRO*         SUNNY     71  71 100 CALM      30.09R FOG
EFFINGHAM*     SUNNY     72  67  84 CALM      30.13S
MARION         PTSUNNY   72  72 100 CALM      30.11R
MT. VERNON     SUNNY     72  64  78 CALM      30.12S
CENTRALIA*     SUNNY     72  71  95 CALM      30.10S FOG
SALEM*         SUNNY     74  69  83 CALM      30.12R
METROPOLIS*    SUNNY     72  72  99 CALM      30.10R FOG
$$

ILZ067-068-072-073-078-083-087-091-051400-
SOUTHEAST ILLINOIS

CITY           SKY/WX    TMP DP  RH WIND       PRES   REMARKS
LAWRENCEVILLE  SUNNY     74  69  85 CALM      30.13R
FLORA*         SUNNY     71  67  87 CALM      30.12S
FAIRFIELD*     SUNNY     73  69  88 CALM      30.11R FOG
HARRISBURG*    SUNNY     73  71  93 CALM      30.11R FOG
ROBINSON*      SUNNY     71  69  93 CALM      30.14R FOG
CARMI*         SUNNY     72  70  92 CALM      30.11R FOG
$$

ABBREVIATIONS USED IN REMARKS
   TC - TEMPERATURE IN CELSIUS
  WCI - WIND CHILL INDEX
   HX - HEAT INDEX
  VSB - VISIBILITY
$$




USA.gov is the U.S. government's official web portal to all federal, state and local government web resources and services.